Location: Terra Rouge Observatory
(46.0000°N, 62.7500°W)
Time: 22:33:12
(UTC-04:00)

NOSS 3-1 (A) - Visible Passes

Search period start: 04 March 2015 00:00
Search period end: 14 March 2015 01:00
Orbit: 886 x 1326 km, 63.4° (Epoch: 03 March)

Date Brightness Start Highest point End Pass type
(mag) Time Alt. Az. Time Alt. Az. Time Alt. Az.
04 Mar 5.6 19:05:53 10° NW 19:10:33 19° N 19:15:30 10° NE visible
04 Mar 5.2 20:58:25 10° NNW 21:04:07 25° NNE 21:05:05 25° NE visible
04 Mar 5.4 22:49:16 10° NW 22:52:32 29° NNW 22:52:32 29° NNW visible
05 Mar 5.4 20:13:33 10° NNW 20:18:45 21° NNE 20:21:52 17° NE visible
05 Mar 5.0 22:04:37 10° NNW 22:09:19 37° N 22:09:19 37° N visible
05 Mar 6.1 23:55:35 10° NW 23:56:45 16° NW 23:56:45 16° NW visible
06 Mar 5.5 19:28:29 10° NW 19:33:18 19° N 19:38:29 10° NE visible
06 Mar 4.8 21:19:58 10° NNW 21:26:06 35° NNE 21:26:06 35° NNE visible
06 Mar 5.6 23:10:47 10° NW 23:13:33 26° NW 23:13:33 26° NW visible
07 Mar 5.6 18:43:11 10° NW 18:47:50 19° N 18:52:47 10° NE visible
07 Mar 5.0 20:35:17 10° NNW 20:41:18 28° NNE 20:42:55 26° NE visible
07 Mar 5.0 22:26:03 10° NW 22:30:21 39° NNW 22:30:21 39° NNW visible
08 Mar 6.3 00:17:41 10° NW 00:17:49 11° NW 00:17:49 11° NW visible
08 Mar 5.3 20:50:29 10° NNW 20:55:59 24° NNE 20:59:45 17° ENE visible
08 Mar 4.5 22:41:24 10° NW 22:47:12 49° N 22:47:12 49° N visible
09 Mar 5.9 00:32:32 10° NW 00:34:39 20° WNW 00:34:39 20° WNW visible
09 Mar 5.4 20:05:33 10° NW 20:10:34 21° NNE 20:16:01 10° ENE visible
09 Mar 4.5 21:56:45 10° NNW 22:03:36 42° NE 22:04:03 41° NE visible
09 Mar 5.2 23:47:39 10° NW 23:51:30 34° NW 23:51:30 34° NW visible
10 Mar 4.9 21:12:06 10° NNW 21:18:27 32° NNE 21:20:56 27° ENE visible
10 Mar 4.4 23:02:53 10° NW 23:08:23 55° NW 23:08:23 55° NW visible
11 Mar 6.2 00:54:57 10° WNW 00:55:50 13° WNW 00:55:50 13° WNW visible
11 Mar 5.1 20:27:22 10° NNW 20:33:11 26° NNE 20:37:50 16° ENE visible
11 Mar 4.0 22:18:11 10° NW 22:25:17 67° NE 22:25:17 67° NE visible
12 Mar 5.6 00:09:35 10° NW 00:12:45 24° WNW 00:12:45 24° WNW visible
12 Mar 5.3 19:42:32 10° NNW 19:47:49 22° NNE 19:53:35 10° ENE visible
12 Mar 4.3 21:33:32 10° NNW 21:40:37 49° NE 21:42:14 44° ENE visible
12 Mar 4.9 23:24:33 10° NW 23:29:41 42° WNW 23:29:41 42° WNW visible
13 Mar 4.7 20:48:53 10° NNW 20:55:33 38° NE 20:59:13 25° E visible
13 Mar 4.0 22:39:43 10° NW 22:46:41 72° W 22:46:41 72° W visible
14 Mar 6.1 00:32:29 10° WNW 00:34:09 14° W 00:34:09 14° W visible
